NOAA 16 DEB

Satellite information

Favourite Embed

Satellite Type and Status

DEBRISIN ORBIT

Key statistics

Satellite NOAA 16 DEB at a glance.

Uptime

9055

Days in orbit

Revolutions

≈ 14.2

Per day

Orbit

SSO

Sun Synchronous Orbit

Inclination

98.9

Latest

Satellite identification and parameters

Extended collection of information and parameters for NOAA 16 DEB.

Object identification

Identified? True

Debris? True

Object name: NOAA 16 DEB

International designator: 2000-055SA

Object number (NORAD): 42382

Object ID (CCSDS): 42382

Country: UNITED STATES OF AMERICA (US)

Current information (Y/N): Y

RCS size: SMALL

Orbital parameters

Period: 101.095 minutes

Inclination: 98.8974 deg

SMA: 7188.629 km

Apoapsis: 840.844 km

Periapsis: 780.145 km

RAAN: 277.1428 deg

Eccentricy: 0.0042219

Argument of periapsis: 109.8114 deg

Mean anomaly: 250.7623 deg

Mean motion: 14.2440545 rev/day

Mean motion (dot): 0.00004102 rev/day2

B* drag term: 0.0017749 1/REarth

Two-line elements (TLE)

Creation date: July 4, 2025, 6:39 p.m.

Reference frame: TEME

Reference center: EARTH

Epoch: July 4, 2025, 11:15 a.m. UTC

TLE line 0: 0 NOAA 16 DEB

TLE line 1: 1 42382U 00055SA 25185.46935260 .00004102 00000-0 17749-2 0 9992

TLE line 2: 2 42382 98.8974 277.1428 0042219 109.8114 250.7623 14.24405450479519

Live tracking on map

Real-time ground track for satellite NOAA 16 DEB.

In-orbit conjunctions

A list of the most updated potential collisions computed for object NOAA 16 DEB.

Target Orbit TCA Probability of collision Miss distance Type
CZ-6A DEB LEO 2025-01-30 10:54:34 0.0001046877 827.0 (m) DEBRIS
COSMOS 2112 LEO 2024-11-15 17:16:24 0.0001054608 271.0 (m) PAYLOAD
ORBCOMM FM 3 SSO 2024-08-09 05:17:45 0.0004990668 96.0 (m) PAYLOAD

Associated space launch

The NOAA K, L and M POES satellites begin the fifth generation of improved environmental monitoring in support of NOAA missions. The instrument payload has significant improvements and additions/deletions. The instrument changes have effected the spacecraft subsystems and data formats.

NOAA 16 DEB was lifted into orbit during the mission ‘Titan II SLV | NOAA 16’, on board a Titan II SLV space rocket.

The launch took place on Sept. 21, 2000, 10:22 a.m. from Space Launch Complex 4W.

For more information about the launch, click the button.

Launch to space Titan II SLV | NOAA 16
Titan II SLV | NOAA 16

Agency: N/A

Status: Launch Successful

Launch date: Sept. 21, 2000, 10:22 a.m. UTC

Rocket: Titan II SLV

Launch pad: Space Launch Complex 4W

Location: Vandenberg SFB, CA, USA

...

Latest news about this satellite

There are no fresh news available about this satellite. Check back as we update our databases every day.


Newsletter sign-up

Weekly statistics, charts and insights to help you stay on top of the space industry.